• Join FlightAware (Why Join?)
  • Login
  • US Flag 
03:23AM EST


 

Airport Tracker/Info


-or-


 

Live Flight TrackerFlight Track Log ✈ SKW4664 ✈ 09-Jun-2013 ✈ KMSP - KFSD

Flight Track Log - Related Links

Times and Time Zones

All times are in EDT time to prevent confusion due to time zone crossing. See the SKW4664 flight status page for this flight to view local times or setup timezone preferences in your user account.

Time Position Orientation Groundspeed Altitude Reporting Facility
EDT Latitude Longitude Course Direction KTS MPH feet Rate Location/Type
10:36AM 44.8333 -93.2333 235° Southwest 178 205 2,800  Level Minneapolis TRACON
10:37AM 44.7833 -93.2833 215° Southwest 246 283 5,300 2,737 Climbing Minneapolis TRACON
10:38AM 44.7500 -93.3500 235° Southwest 272 313 8,000 2,880 Climbing Minneapolis TRACON
10:38AM 44.7367 -93.3892 244° Southwest 269 310 8,900 2,122 Climbing Minneapolis Center
10:39AM 44.6433 -93.7135 235° Southwest  Level FlightAware Approximate
10:39AM 44.6969 -93.4833 239° Southwest 281 323 10,900  Level Minneapolis Center
10:40AM 44.5791 -93.8376 215° Southwest  Level FlightAware Approximate
10:41AM 44.5072 -93.9523 235° Southwest  Level FlightAware Approximate
10:41AM 44.6508 -93.5981 241° Southwest 340 391 12,000  Level Minneapolis Center
10:42AM 44.4444 -94.0780 235° Southwest  Level FlightAware Approximate
10:42AM 44.6058 -93.7206 243° Southwest 355 409 13,700  Level Minneapolis Center
10:43AM 44.5647 -93.8514 246° West 367 422 15,400 1,113 Climbing Minneapolis Center
10:44AM 44.5136 -94.0100 246° West 377 434 16,000 677 Climbing Minneapolis Center
10:45AM 44.4697 -94.1456 246° West 382 440 16,800 774 Climbing Minneapolis Center
10:46AM 44.4261 -94.2797 246° West 381 438 17,600 726 Climbing Minneapolis Center
10:47AM 44.3819 -94.4144 245° Southwest 384 442 18,300 677 Climbing Minneapolis Center
10:48AM 44.3386 -94.5483 246° West 380 437 19,000 677 Climbing Minneapolis Center
10:49AM 44.2883 -94.6992 245° Southwest 381 438 19,700 634 Climbing Minneapolis Center
10:50AM 44.2419 -94.8403 245° Southwest 396 456 20,300 732 Climbing Minneapolis Center
10:51AM 44.1933 -94.9819 244° Southwest 404 465 21,200 816 Climbing Minneapolis Center
10:52AM 44.1456 -95.1242 245° Southwest 404 465 22,000 387 Climbing Minneapolis Center
10:53AM 44.0975 -95.2683 245° Southwest 409 471 22,000  Level Minneapolis Center
10:54AM 44.0394 -95.4364 244° Southwest 403 464 22,000  Level Minneapolis Center
10:55AM 43.9914 -95.5750 244° Southwest 399 459 22,000 -726 Level Minneapolis Center
10:56AM 43.9433 -95.7156 245° Southwest 401 461 20,500 -2,371 Descending Minneapolis Center
10:57AM 43.8956 -95.8542 244° Southwest 398 458 17,100 -2,952 Descending Minneapolis Center
10:58AM 43.8503 -95.9858 245° Southwest 381 438 14,400 -2,390 Descending Minneapolis Center
10:59AM 43.8086 -96.1086 245° Southwest 361 415 12,200 -1,597 Descending Minneapolis Center
11:00AM 43.7697 -96.2144 243° Southwest 334 384 11,100 -1,728 Descending Minneapolis Center
11:01AM 43.7208 -96.2939 230° Southwest 309 356 8,600 -1,935 Descending Minneapolis Center
11:02AM 43.6500 -96.3572 213° Southwest 270 311 7,100 -976 Descending Minneapolis Center
11:03AM 43.5939 -96.4067 213° Southwest 253 291 6,600 -1,024 Descending Minneapolis Center
11:04AM 43.5339 -96.4558 211° Southwest 249 287 5,000 -1,016 Descending Minneapolis Center
11:05AM 43.4814 -96.5117 218° Southwest 243 280 4,500 -195 Descending Minneapolis Center
11:06AM 43.4414 -96.5564 219° Southwest 212 244 4,600 49 Climbing Minneapolis Center
11:07AM 43.3992 -96.6003 217° Southwest 197 227 4,600  Level Minneapolis Center
11:08AM 43.3700 -96.6594 236° Southwest 188 216 4,600  Level Minneapolis Center
11:09AM 43.3472 -96.7336 247° West 189 217 4,600 -195 Level Minneapolis Center
11:10AM 43.3481 -96.7967 271° West 175 201 4,200 -488 Descending Minneapolis Center
11:11AM 43.3642 -96.8519 292° West 165 190 3,600 -339 Descending Minneapolis Center
11:12AM 43.3886 -96.8906 311° West 161 185 3,500 -49 Descending Minneapolis Center
11:13AM 43.4308 -96.8864 North 154 177 3,500 -49 Level Minneapolis Center
11:15AM 43.4692 -96.8583 28° Northeast 154 177 3,400 -145 Descending Minneapolis Center
11:16AM 43.5025 -96.8233 37° Northeast 154 177 3,200 -194 Descending Minneapolis Center